Location: Marcé
(47.5801°N, 0.3280°W)
Time: 22:31:34
(UTC+01:00)

S-56A Canister/Altair - Pass Details

Date: 30 November 2021
Orbit: 633 x 2499 km, 38.9° (Epoch: 16 January)

Event Time Altitude Azimuth Distance (km) Brightness Sun altitude
Rises 02:18:39 0° 229° (SW) 4,579 - -58.5°
Reaches altitude 10° 02:22:37 10° 219° (SW) 3,262 - -58.1°
Maximum altitude 02:28:49 27° 166° (SSE) 1,794 - -57.3°
Drops below altitude 10° 02:33:29 10° 109° (ESE) 2,396 - -56.8°
Sets 02:35:56 0° 96° (E) 3,170 - -56.5°
